GFSSE_850_dewp_036.txt.gz
Dewpoint
12 6 5 8 12 13 9 7 9 9 9 8 4 -3 -5 -7 -9 -10 -14 -17 -17 -15 -15 -15 -14 -13 -13 -13 -13 -12 -6 0 3 7 10 10 9 8 8 8 10 8 8
12 7 5 7 10 8 8 9 9 9 7 0 -4 -5 -9 -10 -15 -17 -17 -15 -14 -13 -12 -10 -8 -6 -6 -6 -8 -11 -6 2 8 10 11 11 9 8 8 9 9 8 7
9 7 6 7 8 9 10 10 9 7 -1 -4 -5 -11 -12 -16 -16 -15 -13 -12 -10 -7 -5 -5 -6 -6 -5 -4 -4 -6 -6 7 9 10 11 11 8 7 7 7 7 5 5
9 8 8 8 9 10 10 9 7 -1 -4 -5 -10 -13 -15 -15 -14 -11 -8 -5 -5 -5 -7 -9 -9 -9 -9 -8 -5 2 6 6 7 9 10 10 9 5 5 5 6 7 7
12 10 9 10 10 10 10 8 -0 -3 -4 -7 -12 -13 -14 -12 -9 -4 -5 -6 -6 -8 -8 -7 -6 -6 -5 -6 -8 2 1 0 5 9 8 6 5 1 4 5 5 6 7
13 10 11 11 10 10 9 3 -3 -3 -5 -11 -12 -11 -10 -6 -3 -6 -6 -6 -8 -7 -6 -5 -4 -3 -2 -2 -2 -2 -1 -0 -1 5 5 4 -6 2 3 4 5 5 4
13 11 11 11 10 9 5 -1 -2 -4 -6 -12 -9 -9 -4 -3 -6 -6 -7 -7 -6 -5 -4 -3 -3 -2 -2 -2 -2 -1 1 3 3 3 2 1 -3 -5 -4 -1 2 4 3
13 11 12 11 10 7 2 0 -2 -3 -8 -8 -8 -3 -3 -5 -5 -5 -6 -6 -6 -5 -4 -3 -2 -2 -1 -2 -1 0 2 2 3 3 4 3 2 -4 -3 -4 -3 -1 -0
12 11 12 11 9 5 1 -1 -2 -4 -7 -7 -1 -2 -2 -3 -3 -4 -5 -5 -5 -4 -3 -2 -2 -2 -0 1 1 1 2 1 2 2 3 3 1 -5 -4 -1 -1 -2 -2
9 10 12 10 8 2 -0 -2 -2 -6 -4 1 0 -1 -2 -1 -1 -2 -3 -4 -3 -2 -1 -1 -1 -2 3 3 2 2 2 1 0 1 1 0 -1 -2 -6 -5 -1 0 -0
10 11 11 9 5 1 -2 -3 -3 -2 2 3 1 8 9 9 9 9 -2 -3 -2 -0 -0 0 0 2 3 3 3 3 2 2 1 0 0 -0 -1 -1 -5 -7 -6 -3 -1
11 8 10 11 8 2 -3 -2 2 4 5 6 4 10 9 9 10 7 4 0 1 2 4 4 4 4 4 3 3 3 3 2 1 1 1 1 -0 -1 -3 -5 -7 -7 -6
11 11 11 11 9 7 2 6 9 9 10 10 10 9 9 5 9 9 7 7 7 6 6 5 4 4 4 4 3 3 2 2 1 1 1 0 0 -0 -2 -3 -5 -7 -8
10 10 10 9 7 7 8 8 9 10 10 8 4 6 4 9 9 7 7 7 6 5 5 5 5 5 4 3 3 3 2 2 1 -0 1 0 -0 -1 -2 -2 -4 -7 -7
10 10 6 5 8 5 8 9 10 9 7 7 7 5 9 8 9 7 7 6 6 4 5 5 5 3 3 3 3 2 1 0 -3 -3 -2 -1 -2 -1 -1 -2 -2 -4 -6
8 8 2 -1 7 9 9 9 9 8 8 9 8 9 8 6 6 8 7 6 6 5 5 4 3 3 3 2 1 -1 -1 -2 -5 -6 -4 -5 -2 -1 -1 -2 -3 -4 -4
7 8 7 8 10 10 9 9 8 5 3 3 4 4 7 8 7 6 6 6 5 6 4 3 3 2 1 0 -1 -3 -4 -4 -7 -7 -5 -7 -3 -1 -1 -2 -2 -2 -3
7 8 9 10 11 10 9 8 3 2 3 3 5 5 7 7 7 7 6 5 5 3 3 2 2 1 0 -1 -3 -7 -6 -6 -8 -6 -6 -6 -3 -2 -2 -2 -2 -3 -3
8 9 10 11 10 9 8 7 4 3 3 3 4 5 7 7 6 5 5 5 3 3 3 2 2 0 -2 -6 -8 -6 -6 -5 -6 -6 -6 -5 -2 -2 -3 -2 -3 -3 -4
9 9 10 11 8 9 7 5 4 5 5 4 6 6 6 5 4 4 4 3 2 2 2 1 0 -1 -4 -4 -4 -5 -6 -5 -6 -6 -5 -2 -2 -3 -4 -5 -4 -5 -4
10 11 10 11 9 8 7 8 7 6 6 7 5 5 4 2 2 3 4 3 3 2 1 -0 -2 -1 -2 -3 -4 -6 -4 -5 -6 -7 -5 -5 -4 -5 -5 -5 -6 -7 -7
9 11 10 10 10 8 9 9 8 7 6 5 5 2 4 2 4 3 2 2 1 1 -1 -3 -3 -2 -2 -3 -4 -4 -4 -5 -6 -6 -7 -7 -8 -8 -8 -8 -9 -9 -9
10 11 10 10 10 9 10 8 7 6 6 6 4 2 3 3 3 2 2 1 1 -0 -2 -2 -2 -2 -2 -3 -3 -4 -5 -5 -5 -6 -6 -8 -9 -9 -9 -10 -11 -11 -10
10 10 10 10 9 9 8 7 6 6 5 4 4 4 4 3 3 2 1 0 -1 -1 -1 -1 -1 -2 -2 -3 -3 -4 -5 -5 -6 -7 -7 -8 -8 -8 -10 -11 -11 -11 -11
10 10 10 8 9 9 7 6 6 5 5 4 4 4 4 3 0 -1 -1 -1 -0 -0 -0 -1 -2 -1 -1 -2 -3 -3 -5 -5 -6 -7 -6 -6 -8 -10 -9 -9 -10 -11 -11
9 9 10 9 8 7 6 6 6 5 5 4 3 2 0 -2 -3 -3 -2 -2 -2 -2 -3 -2 -2 -3 -2 -3 -5 -2 -3 -3 -4 -5 -6 -6 -6 -7 -8 -9 -11 -10 -11

GFSSE_850_dewp_042.txt.gz
Dewpoint
11 11 13 13 13 12 8 7 8 7 2 -7 -10 -16 -17 -19 -18 -15 -13 -11 -8 -7 -7 -6 -6 -7 -0 7 8 8 9 9 10 9 8 6 6 6 7 7 6 6 6
9 12 13 13 12 11 7 9 8 5 -5 -9 -16 -17 -19 -16 -13 -11 -7 -7 -8 -9 -9 -8 -5 -2 4 3 6 7 8 9 9 8 5 -2 2 3 4 5 6 6 6
11 13 13 13 12 7 9 9 7 -3 -7 -13 -17 -18 -16 -13 -9 -7 -8 -10 -10 -10 -10 -9 -2 5 2 1 2 7 8 8 8 6 3 -6 -5 -2 -0 1 2 4 6
10 13 13 12 9 8 9 9 1 -5 -10 -16 -17 -16 -12 -8 -6 -8 -10 -9 -7 -6 -4 -5 -3 4 0 2 2 5 7 7 6 2 0 0 -2 -6 -3 2 3 3 2
10 13 13 11 8 10 10 5 -4 -7 -15 -16 -15 -12 -7 -7 -8 -10 -9 -7 -5 -4 -3 -3 -3 -3 -1 2 3 4 6 6 3 2 2 2 1 -7 -6 -5 -0 3 2
12 13 12 9 10 10 7 -2 -5 -11 -16 -15 -12 -7 -7 -8 -9 -9 -7 -6 -4 -3 -3 -3 -3 -3 -3 -1 2 3 3 4 4 4 4 2 1 -1 -6 -6 -4 -3 -2
13 12 9 11 11 8 -1 -3 -8 -14 -14 -12 -8 -7 -8 -9 -9 -8 -7 -5 -4 -3 -3 -3 -2 -1 -1 -1 -1 0 2 3 1 1 0 0 -1 -2 -3 -8 -6 -3 -3
12 10 12 11 8 1 -2 -5 -10 -13 -12 -9 -7 -8 -9 -9 -8 -7 -6 -5 -3 -3 -2 -2 -1 -0 1 1 1 2 1 1 1 0 1 0 -0 -0 -1 -3 -8 -5 -2
11 12 11 9 5 2 -1 -6 -11 -12 -9 -5 -7 -8 -8 -7 -7 -6 -5 -4 -4 -3 -2 -2 -2 1 2 2 2 2 2 1 1 1 1 1 0 -0 -1 -2 -4 -7 -4
11 9 8 5 4 2 -1 -6 -11 -9 -3 -5 -7 -7 -7 -6 -6 -5 -4 -3 -2 -2 -1 -1 1 2 3 3 3 1 0 -2 -1 -2 -1 -1 -1 0 -1 -3 -3 -6 -7
10 9 7 7 4 3 -2 -7 -8 -3 -4 -5 -6 -6 -4 -4 -3 -4 -4 -2 -1 2 3 2 3 3 4 4 3 1 -0 -1 -1 -3 -5 -1 0 0 -2 -3 -4 -5 -6
9 7 6 9 4 1 -3 -6 -3 -2 -4 -3 1 1 3 5 4 4 2 4 4 5 4 4 4 4 4 4 3 2 1 1 0 -2 -3 1 0 -1 -2 -4 -2 -3 -6
6 9 10 6 4 -0 -4 -4 0 -1 5 6 7 7 6 7 7 7 7 6 5 5 5 4 5 5 5 3 3 2 1 -0 -4 -5 -5 -4 -3 -3 -0 -4 -1 -2 -3
7 10 8 6 2 -2 -4 0 1 1 5 8 9 9 8 9 9 8 7 6 5 5 5 5 5 5 5 3 2 -0 -4 -9 -7 -5 -8 -6 -5 -5 -4 -1 -1 -2 -2
7 10 9 6 1 -3 2 4 4 6 7 8 9 10 9 8 9 8 7 6 6 5 5 5 5 5 4 0 -0 -4 -12 -13 -9 -9 -9 -7 -6 -5 -2 -1 -1 0 1
9 9 10 5 -1 0 6 7 8 8 9 7 8 9 8 9 9 9 7 7 6 5 5 5 5 3 0 0 -1 -10 -18 -14 -10 -12 -8 -6 -5 -4 -1 -1 -1 -1 0
8 10 9 7 7 8 9 9 9 9 10 9 7 6 7 9 9 9 6 7 6 6 5 5 2 0 0 -0 -6 -12 -11 -10 -11 -12 -9 -6 -6 -0 -0 -1 -1 -1 -2
9 10 9 7 7 8 9 9 10 10 9 8 6 4 4 6 8 7 7 7 7 6 5 2 0 1 0 -3 -8 -10 -10 -11 -7 -7 -6 -5 -4 -1 -0 -0 -4 -5 -5
11 10 8 7 7 8 10 10 10 9 8 6 4 5 5 5 6 7 7 6 5 3 1 1 1 1 -2 -6 -8 -8 -8 -10 -7 -6 -6 -4 -5 -5 -3 -6 -6 -7 -7
8 0 6 6 7 10 10 9 8 8 5 4 5 5 5 7 7 6 5 2 1 1 1 1 1 -0 -5 -7 -7 -6 -5 -8 -10 -11 -7 -5 -6 -7 -7 -8 -9 -9 -10
6 -3 -0 5 8 7 9 9 7 7 5 4 6 5 6 6 5 1 -0 1 1 1 2 1 0 -5 -7 -7 -6 -4 -5 -6 -8 -7 -8 -9 -9 -8 -8 -8 -9 -10 -11
7 5 0 2 4 7 8 7 6 5 4 5 6 6 5 3 -0 1 1 1 2 2 1 -1 -5 -4 -6 -4 -3 -3 -4 -6 -7 -4 -5 -5 -6 -8 -8 -11 -9 -9 -10
7 7 6 5 6 7 8 7 7 6 7 7 6 5 4 2 1 1 2 2 1 -1 -3 -4 -3 -3 -2 -2 -3 -2 -3 -3 -2 -3 -5 -6 -7 -6 -6 -8 -11 -9 -9
7 7 8 8 8 8 9 7 7 7 8 7 5 4 2 2 1 3 2 -1 -2 -2 -2 -2 -2 -1 -2 -3 -3 -2 -2 -2 -2 -3 -5 -4 -4 -6 -5 -7 -9 -10 -10
7 8 9 9 10 10 9 8 9 8 6 4 3 4 3 2 3 3 1 -1 -1 -1 -1 -1 -2 -3 -6 -7 -4 -4 -4 -3 -3 -3 -2 -3 -4 -4 -5 -7 -9 -10 -10
8 9 9 10 10 10 9 9 10 8 5 4 4 4 4 4 2 2 1 0 -1 -1 -2 -3 -6 -14 -19 -12 -7 -5 -3 -3 -3 -3 -4 -3 -4 -5 -5 -6 -7 -7 -9

GFSSE_850_dewp_045.txt.gz
Dewpoint
12 14 13 12 12 11 9 5 7 5 -1 -9 -14 -16 -19 -18 -15 -13 -10 -8 -7 -6 -5 -2 4 5 6 7 7 9 9 8 5 -2 -5 3 5 6 6 7 6 7 7
11 14 13 12 12 11 6 7 6 2 -8 -14 -17 -19 -16 -14 -10 -8 -9 -9 -8 -4 2 3 2 3 6 6 7 8 8 6 0 -2 -3 -5 -1 -0 2 4 5 6 7
13 14 13 13 12 9 7 8 5 -6 -11 -17 -18 -15 -12 -9 -9 -11 -11 -10 -8 -0 4 2 1 1 4 6 8 6 6 3 1 1 1 -0 -6 -5 -2 1 2 1 3
14 14 13 13 12 7 8 8 -1 -8 -15 -18 -16 -12 -8 -8 -11 -11 -8 -7 -7 -2 3 1 1 1 0 1 2 4 4 2 3 3 3 2 -2 -7 -6 -5 -1 2 2
14 14 13 13 10 8 9 4 -5 -12 -17 -16 -12 -8 -9 -10 -10 -8 -6 -4 -3 -3 -2 -1 -0 1 2 3 3 4 4 4 3 3 1 0 -0 -2 -6 -6 -5 -5 -2
14 14 14 12 9 10 8 -3 -8 -16 -17 -13 -9 -8 -9 -10 -8 -6 -5 -3 -3 -3 -3 -2 -1 -1 -0 1 2 3 3 2 1 1 0 -1 -2 -2 -3 -7 -6 -3 -4
14 14 13 10 10 9 1 -5 -12 -15 -14 -10 -7 -9 -10 -9 -7 -5 -4 -3 -3 -3 -2 -1 -0 -0 0 1 1 1 1 1 0 -0 -0 -1 -1 -2 -2 -3 -6 -6 -3
13 13 11 11 10 3 -3 -9 -14 -14 -10 -6 -7 -9 -9 -7 -6 -5 -3 -3 -2 -2 -1 -1 0 1 2 2 1 1 1 1 1 -0 -1 -2 -5 -6 -4 -4 -4 -6 -6
13 12 12 11 6 -0 -6 -11 -13 -12 -7 -6 -7 -9 -8 -7 -5 -4 -3 -3 -2 -2 -2 -1 0 1 3 3 1 0 -1 -2 -3 -4 -4 -6 -3 -3 -5 -9 -9 -7 -8
11 11 9 7 3 -2 -7 -11 -12 -10 -4 -6 -7 -7 -7 -6 -5 -4 -3 -3 -2 -2 -2 -0 2 2 3 3 2 -0 -2 -3 -4 -5 -6 -1 0 1 -4 -7 -10 -9 -8
11 10 8 6 4 1 -4 -9 -10 -3 -5 -6 -7 -6 -6 -5 -4 -3 -2 -2 -2 -2 0 2 3 3 4 4 2 0 -1 -3 -4 -5 -6 -2 -0 2 -1 -4 -8 -6 -6
8 7 7 5 4 2 -2 -7 -3 -2 -4 -5 -5 -3 1 -1 -3 -2 -1 -1 -1 2 3 4 4 4 4 4 3 0 -1 -3 -7 -9 -8 -5 -3 3 3 -4 -4 -3 -3
8 7 6 7 3 3 -2 -5 1 -1 2 2 5 7 7 5 5 4 4 3 3 4 4 4 4 4 5 4 2 -1 -3 -9 -12 -9 -10 -9 -6 2 -0 -2 -1 -2 -3
7 5 7 2 1 1 -2 -1 -0 -1 6 8 8 8 7 6 7 7 6 5 5 4 5 5 5 5 5 3 0 -2 -7 -17 -13 -11 -11 -11 -8 -2 1 1 -0 1 -0
6 9 9 4 4 2 -3 2 3 8 9 9 9 8 5 8 8 7 7 6 5 5 5 5 5 5 4 1 -1 -3 -15 -21 -20 -19 -18 -12 -7 -5 2 3 2 3 1
6 8 7 4 3 -1 -2 3 2 8 8 8 9 8 8 7 8 8 7 7 6 6 5 5 5 4 0 -0 -1 -9 -18 -17 -16 -17 -18 -12 -6 -4 3 2 1 2 1
6 8 7 6 2 -1 1 4 3 7 9 8 6 7 6 7 8 9 8 7 6 6 5 5 5 1 0 -0 -5 -15 -12 -11 -12 -11 -10 -8 -6 -3 0 -0 -0 -0 -3
7 8 8 3 -1 -0 7 8 9 9 9 8 8 7 7 8 9 9 8 7 7 6 6 5 2 0 0 -3 -12 -11 -9 -10 -10 -8 -6 -5 -4 0 0 -0 -2 -5 -6
6 7 8 6 4 4 8 9 9 9 10 10 9 6 4 7 9 8 7 8 7 6 5 1 0 1 -1 -9 -9 -9 -7 -10 -8 -11 -8 -6 -5 -4 -2 -3 -6 -8 -8
7 7 9 7 7 8 9 9 9 10 11 10 7 4 5 6 7 8 7 7 5 2 1 1 1 0 -7 -8 -9 -8 -9 -8 -8 -9 -8 -10 -7 -8 -8 -8 -8 -9 -9
10 9 10 9 7 7 8 9 10 10 10 8 4 5 6 7 7 7 6 4 0 0 1 1 -0 -5 -6 -8 -9 -7 -9 -7 -6 -7 -5 -6 -7 -10 -8 -8 -8 -10 -10
10 10 10 9 7 6 7 9 10 10 9 6 5 6 6 6 7 5 2 0 0 1 1 -1 -3 -5 -6 -5 -4 -6 -6 -6 -6 -7 -3 -4 -7 -7 -7 -6 -7 -8 -10
9 8 5 5 4 5 7 10 10 9 8 6 5 6 6 5 4 1 0 1 2 1 -1 -2 -2 -3 -3 -3 -3 -5 -4 -4 -3 -4 -3 -5 -6 -5 -5 -6 -6 -7 -9
8 7 4 -0 0 4 7 10 10 9 7 6 6 7 5 5 1 1 1 2 2 -1 -1 -1 -1 -1 -2 -3 -6 -8 -4 -3 -2 -3 -4 -4 -3 -5 -5 -5 -5 -6 -8
9 7 6 3 2 4 8 10 9 8 7 7 8 7 5 3 2 3 3 2 -0 -0 -0 -0 -1 -2 -6 -12 -13 -9 -7 -5 -3 -3 -3 -4 -4 -4 -5 -5 -5 -6 -6
8 7 7 6 7 8 9 9 9 8 7 8 6 5 4 3 3 4 3 1 1 0 -0 -1 -4 -8 -14 -16 -15 -12 -9 -7 -5 -2 -2 -4 -6 -6 -5 -5 -4 -5 -6

GFSSE_850_dewp_048.txt.gz
Dewpoint
12 14 13 11 10 9 7 5 5 3 -1 -9 -13 -17 -18 -17 -15 -13 -10 -8 -7 -7 -4 -2 2 6 6 8 8 6 1 -1 -1 -3 -6 -3 -0 2 3 4 4 5 6
12 14 12 11 11 9 6 6 5 1 -8 -14 -18 -18 -15 -13 -9 -8 -8 -8 -6 -3 -1 3 6 6 7 6 7 3 1 1 1 1 -2 -7 -5 -2 -0 0 1 3 5
13 14 12 12 10 8 6 6 3 -6 -13 -18 -19 -15 -11 -9 -9 -9 -6 -4 -2 -0 1 2 6 7 8 5 3 2 2 3 3 2 1 -4 -7 -6 -5 -1 1 1 0
14 14 12 12 10 7 7 6 -3 -11 -17 -18 -14 -10 -9 -11 -11 -9 -3 1 3 1 1 0 1 2 3 4 3 3 3 3 2 1 0 -1 -2 -6 -7 -6 -5 -2 1
14 14 13 12 9 7 8 3 -8 -16 -18 -15 -9 -8 -10 -10 -8 -7 -2 2 2 1 1 1 1 1 2 3 3 3 2 1 1 0 -1 -2 -3 -3 -5 -7 -5 -5 -5
14 14 13 12 9 9 7 -4 -12 -16 -15 -9 -7 -10 -9 -6 -4 -3 -2 -2 -2 -2 -2 -2 -1 -0 1 2 3 2 2 0 0 -1 -1 -3 -5 -5 -5 -5 -8 -6 -5
13 13 13 11 10 9 1 -7 -15 -16 -9 -5 -8 -9 -6 -4 -3 -3 -3 -2 -2 -1 -1 -1 -0 0 1 1 1 1 1 1 0 -2 -4 -5 -6 -2 -6 -8 -7 -7 -7
14 13 13 11 10 4 -5 -12 -17 -12 -5 -5 -8 -7 -5 -3 -3 -3 -3 -2 -1 -0 0 1 2 2 2 0 -1 0 -0 -3 -5 -6 -7 -8 -4 -2 -7 -10 -10 -9 -8
13 13 12 12 8 0 -8 -14 -14 -9 -4 -6 -9 -6 -4 -3 -3 -2 -2 -2 -2 -1 -0 1 2 3 3 1 -1 -3 -4 -5 -6 -7 -10 -9 -3 -1 -8 -9 -12 -11 -10
12 13 11 8 4 -4 -11 -12 -8 -4 -5 -7 -8 -5 -4 -3 -3 -2 -2 -2 -2 -2 -0 2 3 4 3 3 -0 -2 -4 -6 -8 -10 -11 -4 1 5 -0 -8 -10 -8 -7
11 10 9 6 1 -5 -8 -6 -5 -4 -5 -7 -6 -4 -4 -3 -3 -2 -2 -2 -2 -1 1 3 4 4 4 3 2 -1 -3 -7 -12 -15 -12 -7 3 5 3 -7 -8 -6 -5
10 8 6 3 1 2 0 -4 -4 -3 -6 -7 -5 -4 -3 -2 -2 -2 -2 -1 -2 -0 3 4 4 4 4 4 2 -1 -3 -10 -18 -16 -15 -13 -5 5 4 2 -3 -4 -4
9 8 6 5 4 4 -2 -5 -7 -4 -6 -4 -4 -2 -3 -3 -3 -2 -1 0 2 3 4 4 4 4 5 4 1 -1 -5 -15 -17 -16 -16 -14 -12 3 4 3 1 1 -1
7 6 6 6 4 2 -2 -6 -7 -3 -4 -2 2 5 3 3 3 4 4 4 4 4 4 5 5 5 5 4 -0 -2 -7 -19 -20 -19 -19 -18 -11 -5 2 3 3 3 2
8 8 6 6 3 0 -4 -6 1 -1 2 6 8 8 7 6 6 6 6 5 5 5 5 5 5 5 5 1 -1 -3 -13 -20 -20 -20 -20 -17 -7 -6 1 3 3 3 2
5 6 6 2 2 -1 -4 -4 1 1 8 8 8 9 7 7 8 7 7 6 6 6 5 5 5 5 3 0 -1 -6 -17 -18 -20 -20 -17 -13 -9 -5 1 2 1 2 2
5 7 2 2 2 1 -2 -1 1 5 9 9 9 9 8 7 7 8 8 7 7 6 5 5 5 4 1 -1 -2 -13 -16 -17 -16 -14 -15 -10 -7 -3 0 1 -0 -0 -2
7 9 7 4 4 0 -1 1 3 8 8 8 8 8 7 6 6 8 9 8 7 6 6 6 5 1 -0 -0 -10 -15 -14 -13 -11 -12 -11 -7 -4 -1 -0 0 -1 -2 -5
6 8 7 7 5 -0 -1 2 4 4 8 9 8 7 7 5 6 9 8 7 7 7 6 5 2 0 -0 -7 -12 -12 -12 -11 -10 -11 -11 -11 -10 -7 -6 -5 -7 -8 -8
6 8 8 7 1 -2 1 4 6 9 10 9 9 8 6 5 7 9 8 8 7 7 5 2 1 0 -5 -7 -8 -7 -10 -10 -10 -9 -10 -9 -9 -10 -13 -11 -9 -8 -8
6 7 8 8 5 2 2 8 9 10 10 9 9 9 4 5 6 7 8 8 7 4 1 1 1 -3 -4 -5 -5 -4 -9 -11 -8 -7 -9 -8 -6 -9 -10 -9 -7 -6 -7
6 6 6 7 7 6 7 8 9 9 9 9 10 7 5 6 6 7 7 7 4 1 2 1 -1 -2 -2 -2 -3 -4 -7 -10 -7 -7 -7 -5 -5 -7 -6 -5 -5 -6 -6
7 7 7 6 8 7 6 7 8 9 9 8 9 6 5 6 7 7 6 4 2 3 2 -1 -1 -1 -1 -2 -3 -6 -8 -9 -7 -6 -6 -5 -6 -5 -5 -6 -6 -5 -5
7 8 8 8 7 7 6 6 7 7 9 8 9 7 6 6 6 6 4 3 3 2 -0 -1 -0 -1 -3 -5 -9 -12 -12 -7 -4 -4 -4 -5 -4 -5 -5 -7 -5 -5 -5
8 8 8 8 9 8 8 7 7 8 9 10 8 6 7 6 5 4 4 4 3 1 -0 -0 -1 -1 1 -6 -14 -18 -15 -10 -6 -3 -3 -3 -3 -3 -5 -7 -5 -4 -4
8 8 9 8 8 8 7 7 7 7 8 9 8 8 7 6 5 4 4 3 3 1 0 0 -0 2 -5 -10 -13 -16 -11 -9 -8 -6 -4 -3 -3 -4 -4 -7 -5 -5 -4